Amargosa Valley, NV

5:22 PM PST on January 22, 2017 (GMT -0800)
Mercury

Weather History for KDRA - September, 2012

Change the Weather History Date:

Sunday, September 30, 2012

  Actual Average Record
Temperature  
Mean Temperature 76 °F 70 °F  
Max Temperature 96 °F 84 °F 98 °F (1980)
Min Temperature 57 °F 55 °F 39 °F (1982)
Degree Days  
Heating Degree Days 0    
Cooling Degree Days 12    
Growing Degree Days 26 (Base 50)    
Moisture  
Dew Point 26 °F    
Average Humidity 15    
Maximum Humidity 30    
Minimum Humidity 4    
Precipitation  
Precipitation 0.00 in 0.02 in 0.07 in (1983)
Month to date precipitation 0.60  
Year to date precipitation 4.57  
Sea Level Pressure  
Sea Level Pressure 29.99 in    
Wind  
Wind Speed 5 mph (ENE)    
Max Wind Speed 15 mph    
Max Gust Speed 22 mph    
Visibility 10 miles    
Events      
T = Trace of Precipitation, MM = Missing Value Source: NWS Daily Summary

Daily Weather History Graph

Daily Weather History Graph

Search for Another Location

Airport or City:

Trip Planner

Search our weather history database for the weather conditions in past years. The results will help you decide how hot, cold, wet, or windy it might be!

Date:

Astronomy

Sep. 30, 2012 Rise Set
Actual Time 6:38 AM PDT 6:28 PM PDT
Civil Twilight 6:13 AM PDT 6:53 PM PDT
Nautical Twilight 5:43 AM PDT 7:23 PM PDT
Astronomical Twilight 5:13 AM PDT 7:53 PM PDT
Moon 6:37 PM PDT (9/30) 7:11 AM PDT (9/30)
Length of Visible Light 12h 40m
Length of Day
11h 49m
Full, 100% of the Moon is Illuminated
Sep 30
Full
Oct 8
Last Quarter
Oct 15
New
Oct 21
First Quarter
Oct 29
Full

Hourly Weather History & Observations

Time (PDT) Temp. Dew Point Humidity Pressure Visibility Wind Dir Wind Speed Gust Speed Precip Events Conditions
12:52 AM 64.0 °F 26.1 °F 24% 29.98 in 10.0 mi ESE 4.6 mph - N/A   Clear
1:52 AM 64.9 °F 27.0 °F 24% 29.99 in 10.0 mi ENE 4.6 mph - N/A   Clear
2:52 AM 66.0 °F 28.0 °F 24% 29.98 in 10.0 mi Calm Calm - N/A   Clear
3:52 AM 64.0 °F 28.0 °F 26% 29.99 in 10.0 mi Calm Calm - N/A   Clear
4:52 AM 60.1 °F 27.0 °F 28% 30.00 in 10.0 mi ESE 5.8 mph - N/A   Clear
5:52 AM 62.1 °F 28.0 °F 28% 30.01 in 10.0 mi East 3.5 mph - N/A   Clear
6:52 AM 60.1 °F 28.0 °F 30% 30.04 in 10.0 mi ESE 4.6 mph - N/A   Clear
7:52 AM 64.9 °F 28.9 °F 26% 30.06 in 10.0 mi Calm Calm - N/A   Clear
8:52 AM 75.0 °F 28.0 °F 18% 30.06 in 10.0 mi Calm Calm - N/A   Clear
9:52 AM 84.0 °F 27.0 °F 13% 30.05 in 10.0 mi NNE 8.1 mph - N/A   Clear
10:52 AM 88.0 °F 27.0 °F 11% 30.03 in 10.0 mi NW 4.6 mph - N/A   Clear
11:52 AM 91.0 °F 28.0 °F 10% 30.02 in 10.0 mi NNE 6.9 mph - N/A   Clear
12:52 PM 93.0 °F 25.0 °F 9% 30.00 in 10.0 mi NNW 6.9 mph - N/A   Clear
1:52 PM 96.1 °F 26.1 °F 8% 29.97 in 10.0 mi NE 15.0 mph 18.4 mph N/A   Clear
2:52 PM 95.0 °F 24.1 °F 8% 29.96 in 10.0 mi North 9.2 mph 21.9 mph N/A   Clear
3:52 PM 95.0 °F 24.1 °F 8% 29.95 in 10.0 mi NNE 11.5 mph - N/A   Clear
4:52 PM 93.0 °F 23.0 °F 8% 29.94 in 10.0 mi ESE 8.1 mph - N/A   Clear
5:52 PM 91.0 °F 24.1 °F 9% 29.94 in 10.0 mi East 6.9 mph - N/A   Clear
6:52 PM 84.9 °F 23.0 °F 10% 29.95 in 10.0 mi East 4.6 mph - N/A   Clear
7:52 PM 79.0 °F 23.0 °F 13% 29.98 in 10.0 mi NNW 8.1 mph - N/A   Clear
8:52 PM 73.9 °F 23.0 °F 15% 29.98 in 10.0 mi North 3.5 mph - N/A   Clear
9:52 PM 73.0 °F 23.0 °F 15% 29.97 in 10.0 mi Variable 3.5 mph - N/A   Clear
10:52 PM 69.1 °F 23.0 °F 18% 29.97 in 10.0 mi ESE 4.6 mph - N/A   Clear
11:52 PM 71.1 °F 21.9 °F 16% 29.96 in 10.0 mi ESE 5.8 mph - N/A   Clear